Regional Weather Roundup
Issued by NWS Charleston, SC

Home | Current Version | Previous Version | Text Only | Print | Product List | Glossary On
Versions: 1 2 3 4 5 6 7 8 9 10 11 12 13 14 15 16 17 18 19 20 21 22 23 24 25 26 27 28 29 30 31 32 33 34 35 36 37 38 39 40 41 42 43 44 45 46 47 48 49 50
000
ASUS42 KCHS 270827
RWRCHS

Regional Weather Roundup
National Weather Service Charleston SC
400 AM EDT FRI APR 27 2018

NOTE: "fair" indicates few or no clouds below 12,000 feet with no
significant weather and/or obstructions to visibility.

Not all stations are quality controlled. Use data with caution,
especially dewpoint observations.

SCZ027-030-031-034>040-042>050-270900-
...Southeast South Carolina...

CITY           SKY/WX    TMP DP  RH WIND       PRES   REMARKS
N Charleston   FAIR      65  63  93 S7        29.77S
Waterfront Prk NOT AVBL
Mount Pleasant FAIR      66  64  94 S5        29.77S
Johns Island   FAIR      68  64  88 SW7       29.77S
Pinopolis        N/A     63  63 100 VRB2      29.67F
Moncks Corner  PTSUNNY   61  59  94 CALM      29.77S FOG
Summerville    PTSUNNY   61  61 100 CALM      29.78R
Beaufort MCAS  FAIR      65  64  97 SW8       29.77S
Beaufort Arpt  FAIR      64  61  88 SW7       29.77S
Hilton Head Is FAIR      66  61  82 VRB7      29.79S
Walterboro     FAIR      61  61 100 CALM      29.78S FOG
Allendale      PTSUNNY   57  57 100 CALM      29.78S FOG

...Southern Midlands and Pee Dee...

CITY           SKY/WX    TMP DP  RH WIND       PRES   REMARKS
Georgetown     FAIR      59  59 100 CALM      29.78S
Kingstree      CLOUDY    59  59 100 CALM      29.78S
Orangeburg     CLOUDY    60  57  89 CALM      29.78S
Barnwell       FOG       55  55 100 CALM      29.80R VSB 1/2
Aiken          PTSUNNY   52  52 100 CALM      29.83R
Manning        CLOUDY    55  55 100 CALM      29.77S
Columbia       FAIR      58  58 100 W3        29.78S
Sumter         MOCLDY    58  56  95 N3        29.76F
Florence       LGT RAIN  59  58  96 N7        29.79F
Myrtle Beach   CLOUDY    63  60  90 CALM      29.79F
N Myrtle Beach LGT RAIN  64  59  83 SE3       29.78F

$$

GAZ063-065-086>088-099>101-113>116-118-119-134>141-150-270900-
...Southeast Georgia...

CITY           SKY/WX    TMP DP  RH WIND       PRES   REMARKS
Savannah Arpt  MOCLDY    60  59  96 W3        29.80R
Hunter AAF     FAIR      63  59  88 SW5       29.77S
Fort Stewart   FAIR      61  58  90 SW5       29.79R
Statesboro     CLOUDY    61  32  33 W3        29.81R
Sylvania       CLOUDY    59  59 100 CALM      29.81R FOG
Claxton        CLOUDY    62  61  96 CALM      29.82R

...CSRA, Central and far Southeast Georgia...

CITY           SKY/WX    TMP DP  RH WIND       PRES   REMARKS
Thomson        FOG       53  53  99 NW3       29.85S VSB<1/4
Augusta-Bush   FOG       57  57 100 NW6       29.79S VSB 1/2
Augusta-Daniel FOG       58  57  97 NW3       29.80S VSB 1/2
Swainsboro     CLOUDY    57  57 100 CALM      29.82S
Vidalia        CLOUDY    61  57  88 W5        29.82S
Eastman        CLOUDY    60  54  79 SW3       29.86R
Hazlehurst     FOG       62  59  91 CALM      29.81S VSB 1/2
Alma           FAIR      62  60  93 W3        29.82S
Waycross       MOCLDY    63  60  90 W3        29.82S
Jesup          NOT AVBL
Baxley         FAIR      59  59 100 CALM      29.82R
Brunswick      MOCLDY    64  61  88 SW9       29.82S
Saint Simons   FAIR      65  62  90 W6        29.81F

$$

SCZ027-028-034-036>038-045-046-048>050-GAZ119-141-270900-
...Lake and Supplemental Coastal Observations...

STATION/POSITION TIME  TEMP    WIND        PRES    WAVE   SWELL
                       AIR SEA DIR/SP/G            HT/PER HT/PER/DIR
                 (UTC) (F)     (DEG/KT/KT) (MB)    (FT/S) (FT/S/D)
Winyah Bay       0745   64      90/  2     1008.0F
Lake Murray      0720   58     290/  2/  4 1008.1
ACE Basin NERRS  0745   66        CALM       N/A
Fort Pulaski     0800   66 67  250/  6/ 10 1009.0
Sapelo Island    0800   68     240/ 12     1009.0

$$

ANZ835-935-AMZ111-154-330-350-352-354-370-450-454-472-270900-
...C-MAN and Buoy Observations...

STATION/POSITION TIME  TEMP    WIND        PRES    WAVE   SWELL
                       AIR SEA DIR/SP/G            HT/PER HT/PER/DIR
                 (UTC) (F)     (DEG/KT/KT) (MB)    (FT/S) (FT/S/D)
Buoy 41004       0800      70  210/ 12/ 16 1008.2
Buoy 41008       0750   67 66  220/ 14/ 17 1008.9R   3/ 8   2/ 60/ 8
Folly Beach CMAN 0800   68     210/ 13/ 16 1008.7F
Capers Nearshore 0808   68 66  230/ 12/ 16 1008.5F
Fripp Nearshore  0808   67 65  220/ 12/ 16 1007.7S


STATION/POSITION TIME  TEMP    WIND        PRES    WAVE   SWELL
                       AIR SEA DIR/SP/G            HT/PER HT/PER/DIR
                 (UTC) (F)     (DEG/KT/KT) (MB)    (FT/S) (FT/S/D)
5E St. Marys GA  0800      69                N/A     3/ 8
Frying Pan Buoy  0800          220/  2/  4 1008.8
Buoy 41025       0810   74     190/ 27/ 35   N/A
Cape Lookout NC  0800          240/  7/  8 1009.0R
Buoy 41002       0810   73     180/ 16/ 19 1012.0
Buoy 41010       0800   77 77  190/ 17/ 21 1011.0
St Augustine FL  0800   65 69  230/  7/ 10 1010.7F


$$




USA.gov is the U.S. government's official web portal to all federal, state and local government web resources and services.